This demonstration page uses our WeatherBlox Daily Observations layout. Learn more.

Left ArrowRight Arrow

39.95238, -75.16362

Hourly Observations for May 26, 2016

Temp ( °F °C ) Dew Point ( °F °C ) Humidity (%) Winds ( mph kmh ) Pressure ( in mb ) Visibility ( mi km ) Precip ( " mm )
12:54 am 00:54 Mostly Cloudy 70 21.1 55 12.8 59 59 SW 7 11 30.10 1019 10 16 0.00 0.00
1:54 am 01:54 Partly Cloudy 68 20 55 12.8 63 63 SW 7 11 30.10 1019 10 16 0.00 0.00
2:54 am 02:54 Mostly Cloudy 65 18.3 56 13.3 73 73 WSW 6 9 30.10 1019 10 16 0.00 0.00
3:54 am 03:54 Partly Cloudy 66 18.9 55 12.8 68 68 WSW 6 9 30.11 1020 10 16 0.00 0.00
4:54 am 04:54 Mostly Cloudy 64 17.8 56 13.3 75 75 WSW 6 9 30.11 1020 10 16 0.00 0.00
5:54 am 05:54 Mostly Cloudy 64 17.8 55 12.8 73 73 WSW 6 9 30.12 1020 10 16 0.00 0.00
6:54 am 06:54 Partly Cloudy 65 18.3 56 13.3 73 73 WSW 3 6 30.13 1020 10 16 0.00 0.00
7:54 am 07:54 Partly Cloudy 68 20 57 13.9 68 68 Calm 30.14 1021 10 16 0.00 0.00
8:54 am 08:54 Mostly Cloudy 72 22.2 58 14.4 61 61 SSW 6 9 30.14 1021 10 16 0.00 0.00
9:54 am 09:54 Mostly Cloudy 76 24.4 58 14.4 54 54 SW 6 9 30.12 1020 10 16 0.00 0.00
10:54 am 10:54 Mostly Cloudy 80 26.7 59 15 49 49 VRB 5 7 30.11 1020 10 16 0.00 0.00
11:54 am 11:54 Mostly Cloudy 83 28.3 57 13.9 41 41 S 7 11 30.10 1019 10 16 0.00 0.00
12:54 pm 12:54 Mostly Cloudy 86 30 54 12.2 33 33 WSW 9 15 30.08 1019 10 16 0.00 0.00
1:54 pm 13:54 Mostly Cloudy 88 31.1 51 10.6 28 28 SW 10 17 30.06 1018 10 16 0.00 0.00
2:54 pm 14:54 Mostly Cloudy 89 31.7 46 7.8 23 23 SW 12 19 30.06 1018 10 16 0.00 0.00
3:54 pm 15:54 Mostly Cloudy 89 31.7 53 11.7 29 29 W 8 13 30.05 1018 10 16 0.00 0.00
4:54 pm 16:54 Partly Cloudy 88 31.1 54 12.2 31 31 WSW 8 13 30.04 1017 10 16 0.00 0.00
5:54 pm 17:54 Partly Cloudy 88 31.1 55 12.8 33 33 SW 9 15 30.03 1017 10 16 0.00 0.00
6:54 pm 18:54 Partly Cloudy 86 30 56 13.3 36 36 S 12 19 30.02 1017 10 16 0.00 0.00
7:54 pm 19:54 Partly Cloudy 83 28.3 52 11.1 34 34 S 9 15 30.03 1017 10 16 0.00 0.00
8:54 pm 20:54 Partly Cloudy 79 26.1 53 11.7 41 41 SSE 8 13 30.04 1017 10 16 0.00 0.00
9:54 pm 21:54 Partly Cloudy 76 24.4 55 12.8 48 48 SSE 6 9 30.05 1018 10 16 0.00 0.00
10:54 pm 22:54 Partly Cloudy 76 24.4 57 13.9 52 52 SW 3 6 30.06 1018 10 16 0.00 0.00
11:54 pm 23:54 Partly Cloudy 74 23.3 59 15 60 60 Calm 30.06 1018 10 16 0.00 0.00

Powered by AerisWeather